Theta_e
293 287 284 287 289 291 290 288 287 291 294 292 291 292 295 297 296 296 297 299 301 304 311 314 317 317 318 320 324 331 342 341 342 339 339 336 338 336 336 338 341 341 344 342
289 285 291 293 293 291 290 287 287 291 294 292 291 291 294 296 296 297 298 299 300 301 304 310 315 314 314 319 326 326 338 343 344 342 341 335 336 331 331 335 338 340 345 343
285 289 294 292 291 290 289 287 288 289 293 294 290 288 291 295 296 297 298 298 300 301 302 305 311 315 315 315 325 327 333 340 342 340 332 330 331 332 333 333 333 338 343 345
288 292 292 291 290 292 286 293 292 291 288 281 289 280 287 291 291 295 296 297 297 299 301 304 308 313 314 316 325 327 328 335 336 333 332 327 326 326 328 331 336 339 343 345
287 288 289 289 291 294 289 293 291 291 287 284 285 279 285 289 289 292 294 296 298 299 301 302 305 310 315 318 325 328 328 330 332 331 331 329 327 328 329 334 335 339 340 343
290 294 292 293 295 294 294 291 289 287 284 277 283 281 282 286 288 291 295 297 299 299 300 302 304 305 310 316 324 327 327 328 329 330 330 328 327 329 331 333 334 336 337 339
289 289 292 296 290 291 288 285 277 276 275 276 284 282 284 290 293 295 296 299 301 302 303 302 302 303 307 316 322 324 325 326 327 328 329 330 329 329 331 333 336 336 335 335
281 280 289 294 289 284 284 284 277 275 275 278 286 279 284 292 298 300 301 300 301 301 302 304 304 303 304 310 322 324 324 325 325 325 327 331 330 329 331 335 340 340 340 339
280 283 293 294 294 290 285 280 286 282 281 275 279 285 290 298 297 298 297 299 298 300 302 304 307 306 308 311 319 322 323 323 323 326 327 329 332 330 332 337 340 340 339 339
287 281 291 292 293 292 289 290 280 281 272 272 279 281 282 291 293 295 295 296 298 300 302 306 307 309 312 312 316 316 321 321 320 326 329 332 332 336 336 339 339 338 338 340
288 284 285 289 286 284 285 283 287 283 282 277 276 278 292 292 294 294 295 297 298 300 304 307 306 312 313 318 320 318 315 320 324 328 329 334 336 338 341 341 340 338 339 338
290 285 281 285 291 292 290 286 285 276 279 282 279 280 295 294 294 295 297 298 299 302 305 306 308 307 322 320 321 322 320 324 328 334 336 336 338 340 340 341 340 340 339 339
290 283 280 280 284 288 286 287 286 285 285 279 278 280 295 296 297 296 298 299 301 304 306 306 306 307 320 322 322 322 324 331 336 338 338 337 338 339 337 337 339 340 339 337
296 286 282 278 282 284 284 287 289 287 282 281 282 285 291 294 295 297 298 300 302 305 306 305 305 307 317 327 325 324 332 337 339 340 339 337 335 335 335 335 335 336 335 334
290 284 286 287 289 289 288 288 288 285 286 283 285 286 291 294 296 298 300 301 303 304 304 306 309 307 322 325 327 332 337 339 339 338 336 334 334 335 334 333 330 331 330 331
290 284 287 285 289 289 287 289 289 288 289 288 288 287 295 297 299 299 301 302 302 305 306 306 307 308 315 322 323 329 335 337 338 336 334 335 334 334 333 332 329 328 327 326
287 286 286 280 287 286 282 286 287 289 291 289 284 290 295 295 296 297 299 302 303 303 303 304 305 307 314 321 323 324 330 335 335 334 334 334 334 331 330 329 327 325 322 322
289 289 287 281 281 275 285 294 294 292 292 292 292 295 296 296 297 298 300 302 301 301 301 302 304 306 311 324 325 329 332 333 334 333 332 333 331 329 328 327 325 323 323 322
292 289 284 280 276 283 287 292 291 289 288 295 294 294 295 296 296 295 301 301 300 300 302 303 305 307 312 322 325 325 327 332 333 332 331 330 330 327 327 325 324 322 324 327
292 292 286 281 278 275 282 294 296 293 283 297 294 293 293 294 287 291 298 299 300 301 303 304 305 307 317 319 322 321 322 331 330 330 330 330 329 327 325 324 324 325 323 323
288 287 283 283 280 283 291 296 296 280 285 296 295 294 294 291 294 297 299 299 301 301 303 305 305 305 313 319 319 319 320 325 329 329 330 329 328 325 324 324 324 322 323 324
281 283 282 283 281 276 297 294 286 289 295 297 296 296 295 296 297 298 299 299 300 300 302 304 304 304 308 319 321 318 319 325 327 329 329 328 327 329 327 325 323 324 323 321
282 287 285 286 283 291 296 295 298 298 297 296 297 297 296 296 297 298 299 300 300 300 302 303 304 304 308 320 326 326 323 327 325 328 328 328 328 328 328 326 324 322 322 321
292 294 287 287 291 293 297 299 300 300 298 300 298 298 297 296 298 299 299 299 300 301 302 304 303 304 308 320 321 326 325 327 328 328 328 328 325 324 325 326 325 324 322 321
289 289 288 289 293 296 298 300 299 300 300 300 299 298 299 299 298 298 297 298 300 301 303 304 303 304 309 318 318 326 327 329 327 326 327 326 325 322 315 307 311 322 318 319
291 289 287 288 295 296 296 300 301 299 298 299 298 299 300 299 298 298 297 298 299 301 303 303 304 308 312 318 319 321 329 328 327 325 326 325 321 317 314 313 308 295 295 295
Wind_Speed
4 4 4 8 8 12 7 9 7 5 6 8 13 19 14 8 6 8 8 9 12 14 19 18 11 10 9 4 9 10 15 10 8 3 5 3 6 4 3 6 8 8 10 11
7 4 6 6 6 6 9 11 12 4 5 8 9 21 17 13 9 8 10 14 12 15 18 19 17 10 10 9 11 8 13 14 13 10 8 4 7 4 4 6 8 10 10 9
3 9 10 7 5 9 6 8 10 14 15 13 9 18 14 13 7 8 8 9 10 12 16 18 21 17 11 10 11 16 15 15 15 15 5 3 3 2 3 3 3 6 8 10
7 8 5 3 2 3 4 7 13 14 9 6 4 17 17 11 8 9 11 11 10 12 14 15 20 21 14 13 11 14 17 16 16 14 10 8 7 6 4 5 3 4 8 9
11 4 7 4 1 2 6 9 13 13 8 7 10 5 14 14 20 18 15 17 18 17 18 17 19 20 21 12 11 14 16 17 16 14 12 8 5 4 3 3 4 5 5 7
10 4 3 6 4 4 7 5 5 5 3 6 7 6 18 13 14 13 13 13 15 20 22 21 20 20 20 13 9 10 14 16 13 13 12 11 11 8 5 4 4 4 4 4
4 3 2 4 3 5 1 3 5 6 4 6 2 6 13 11 11 13 13 13 16 19 21 23 21 18 15 10 11 11 12 14 11 12 9 10 11 10 11 7 6 7 4 3
1 6 4 6 2 5 6 6 5 6 4 11 4 9 8 7 7 8 9 13 15 18 18 23 26 19 21 18 17 17 16 16 12 10 11 11 10 8 7 8 7 8 9 7
2 5 6 8 7 2 5 4 5 3 1 2 5 7 8 2 6 10 11 14 18 20 20 24 25 21 19 20 20 19 19 19 15 15 12 8 9 8 9 9 9 8 8 7
3 9 7 6 6 5 6 5 2 2 3 4 5 7 10 5 10 12 14 16 20 21 21 21 20 23 23 18 18 12 15 19 18 14 11 11 11 10 8 9 10 11 9 10
2 3 4 6 5 5 3 3 1 1 3 3 5 6 7 7 8 11 14 18 19 19 18 20 18 24 10 8 9 11 13 12 9 9 8 9 9 9 9 9 11 11 11 10
3 3 5 10 17 13 7 5 4 5 2 4 4 11 4 5 8 7 11 14 19 19 20 16 20 20 11 4 8 8 8 9 11 12 11 11 9 9 9 9 11 12 12 10
2 2 6 7 5 5 2 3 3 2 1 8 4 7 2 9 9 5 15 20 21 15 13 23 20 20 16 6 5 7 7 8 11 12 11 8 9 10 10 10 11 11 11 11
7 5 8 8 10 6 14 17 14 11 4 6 10 13 11 13 10 8 13 15 15 9 11 22 20 19 14 6 7 8 9 11 11 11 11 11 10 11 10 11 11 12 11 12
6 6 7 14 18 19 20 20 19 16 13 9 10 8 10 14 9 8 8 14 14 16 20 20 19 18 10 5 6 8 11 12 13 13 13 11 11 12 12 12 9 9 10 10
2 7 4 17 17 18 21 20 16 14 10 5 8 9 3 11 9 7 10 13 14 16 13 14 18 20 13 12 14 11 9 12 13 13 14 15 15 15 12 11 8 8 8 7
4 4 3 5 7 12 8 10 8 4 2 3 5 4 4 6 11 9 13 8 9 15 15 17 18 19 16 12 11 14 5 10 14 15 15 15 16 15 12 11 9 8 8 8
7 3 3 6 6 3 6 4 4 3 3 6 6 4 6 9 12 13 12 3 13 15 20 17 15 18 19 7 5 11 9 12 14 15 15 16 16 13 11 11 9 7 6 9
15 5 3 3 3 10 10 3 2 2 6 2 3 4 7 12 16 14 5 12 15 14 14 15 14 14 11 7 11 13 8 12 14 16 15 14 16 12 10 10 8 6 8 8
4 5 3 2 2 5 6 4 4 3 6 3 3 6 6 7 12 17 18 20 21 17 14 16 14 11 7 7 5 6 8 7 14 16 16 14 14 12 11 9 8 6 8 7
3 3 7 7 5 8 6 5 3 4 5 6 6 10 10 8 11 19 21 22 16 15 17 17 14 11 8 4 3 4 9 7 12 15 15 13 12 12 10 8 7 6 8 8
7 5 5 4 6 8 6 4 6 8 5 9 13 13 13 17 17 17 17 20 15 16 16 17 14 13 10 9 0 7 15 10 11 14 13 12 11 10 8 12 6 7 8 8
4 5 3 6 8 6 5 6 7 7 15 10 11 11 10 18 16 21 15 16 16 13 13 14 13 13 11 6 7 6 10 8 11 14 13 12 11 10 11 11 9 6 7 7
4 3 4 7 5 11 14 8 8 7 11 13 7 9 9 18 17 16 18 15 16 12 12 13 11 12 11 7 9 9 7 11 13 14 13 11 11 10 8 7 6 7 6 6
8 9 7 9 15 14 14 6 12 11 11 7 7 10 15 19 19 19 21 19 17 14 12 10 10 11 12 4 9 11 12 12 13 14 13 11 10 10 8 7 4 4 3 5
4 6 6 13 11 11 16 16 15 15 8 7 13 18 15 18 22 20 20 18 15 13 10 10 8 8 10 10 8 16 15 13 17 14 12 10 9 8 8 8 6 14 8 2
Wind_Direction
300 64 265 255 214 239 258 272 295 293 263 275 282 280 288 286 277 292 299 298 294 302 284 264 229 240 249 231 212 239 183 189 160 160 164 165 211 200 200 211 206 209 206 199
8 280 252 257 303 327 323 312 318 314 297 282 285 282 285 279 266 246 273 287 283 286 291 288 261 225 227 225 194 224 222 182 182 189 194 172 185 186 184 205 210 199 190 184
193 249 290 317 349 357 341 325 336 322 317 315 295 278 284 288 277 283 278 277 290 280 288 286 284 262 228 219 198 191 213 205 194 192 144 99 75 90 159 194 217 200 179 180
259 263 306 274 303 76 327 300 303 293 303 286 303 284 290 305 303 305 301 291 282 290 287 289 288 273 237 218 205 197 198 198 200 182 177 173 172 180 197 175 190 191 167 181
247 319 279 276 151 283 259 301 285 288 267 292 267 264 286 299 290 286 286 286 290 292 291 289 290 283 264 239 198 199 204 200 190 186 189 187 168 202 137 151 192 173 154 165
239 251 151 178 224 215 251 289 329 290 211 247 269 201 282 278 274 276 288 286 297 295 282 279 278 277 287 251 204 193 189 202 192 185 192 181 187 181 155 162 176 156 142 151
326 287 215 155 253 303 45 55 328 331 350 245 322 301 252 270 274 294 328 346 326 328 309 286 275 278 288 242 211 192 187 205 202 195 187 192 194 188 186 167 166 146 151 152
288 321 24 356 251 250 301 169 179 269 282 290 292 247 263 295 44 350 350 333 322 320 317 302 286 263 265 255 218 198 183 203 199 197 204 202 200 193 187 170 165 172 176 175
350 255 331 299 306 80 284 249 207 231 327 51 241 276 282 356 330 337 326 320 315 314 316 307 303 277 265 254 219 200 194 197 200 202 201 193 189 170 181 165 162 169 163 162
290 292 215 268 327 299 147 232 307 335 280 268 277 268 261 322 306 316 309 314 310 307 310 307 309 305 269 218 210 197 199 197 200 190 191 193 183 178 161 152 158 165 161 155
323 202 275 328 232 238 302 299 155 121 209 236 300 253 200 246 274 290 313 321 308 306 313 300 307 309 231 168 165 175 186 186 178 175 172 164 167 169 147 165 167 166 153 155
198 239 284 262 274 272 208 209 150 122 270 262 220 272 53 235 248 295 304 311 305 303 299 311 324 327 286 217 153 163 160 167 177 169 159 164 157 138 158 167 164 155 153 161
182 259 301 314 359 9 321 228 211 157 140 219 238 273 254 261 257 295 323 334 315 312 5 311 312 311 280 262 216 170 163 162 161 153 148 138 133 147 152 151 151 146 145 152
173 206 194 245 270 240 284 281 275 243 213 252 253 286 293 294 284 279 327 305 304 350 338 299 293 296 295 259 229 182 161 158 150 140 134 131 140 141 140 136 132 141 146 144
166 238 224 249 265 266 262 277 279 271 259 246 268 238 263 262 251 247 284 308 336 10 289 296 329 315 275 330 324 168 156 154 145 132 126 130 127 127 124 120 119 128 122 138
233 280 264 286 272 265 268 268 271 274 254 264 270 287 276 274 249 296 286 302 318 284 302 319 331 339 322 29 5 339 154 143 131 131 132 132 132 120 125 122 135 116 124 137
236 249 288 266 332 308 290 276 235 215 274 226 263 267 327 314 300 315 295 282 281 310 331 344 341 337 349 18 6 323 238 135 132 132 137 135 135 137 142 136 132 129 135 125
217 180 233 291 342 284 235 25 59 327 214 312 300 270 290 305 302 296 287 305 322 338 331 337 337 341 343 33 350 294 185 144 137 140 138 142 135 136 136 136 132 128 129 132
199 159 233 254 207 271 289 149 131 187 269 259 278 306 316 316 315 307 293 310 315 323 321 317 339 341 339 13 359 35 346 145 140 142 136 140 131 136 136 132 134 127 123 131
94 103 196 202 244 265 249 153 170 106 294 235 274 275 272 314 312 301 320 318 320 328 323 319 333 340 345 31 28 22 281 223 146 140 139 138 137 138 140 137 131 129 129 134
175 221 224 242 248 267 228 178 191 121 264 198 260 288 273 246 254 286 303 302 303 311 312 317 330 327 317 320 331 209 317 247 160 137 137 144 144 134 132 124 118 120 123 128
184 202 218 234 228 267 171 179 177 210 192 234 261 253 262 272 286 289 290 290 298 306 312 315 321 318 322 335 53 286 259 270 154 143 144 138 133 135 134 127 120 127 130 130
277 198 207 214 234 250 214 218 253 274 275 267 227 243 243 278 286 290 288 289 294 301 299 301 303 321 322 313 305 233 240 270 151 147 141 141 131 134 135 131 131 127 130 135
302 336 272 318 272 285 273 258 278 262 254 268 220 228 223 261 277 276 290 290 293 296 289 295 311 303 310 326 2 245 262 262 140 139 139 133 129 125 118 118 130 138 144 141
271 300 265 262 280 293 277 284 298 267 268 241 255 252 259 260 269 277 284 279 278 279 279 290 288 294 300 333 343 306 263 231 136 133 133 126 127 115 100 71 49 140 109 158
208 238 294 284 284 283 291 292 288 282 255 238 263 273 261 258 262 267 266 265 264 268 282 269 275 301 311 332 292 297 243 188 138 133 134 137 129 124 125 127 102 47 39 296